This is the latest recevied weather packets stored in our database for station/object KO4APQ. If no packets are shown the sender has not sent any weather packets the latest 10 day(s).
| Time | Temp. | Humidity | Pressure | Rain* | Wind** | Luminosity | Snow |
|---|---|---|---|---|---|---|---|
| 1777582221 | 24.44° C | 49% | 1009.7 hPa | 0 mm | - | 413 W/m² | - |
| 1777581919 | 23.89° C | 52% | 1009.8 hPa | 0 mm | - | 488 W/m² | - |
| 1777581614 | 23.89° C | 52% | 1009.7 hPa | 0 mm | - | 428 W/m² | - |
| 1777581308 | 23.89° C | 51% | 1009.9 hPa | 0 mm | - | 520 W/m² | - |
| 1777581004 | 23.89° C | 55% | 1009.9 hPa | 0 mm | - | 437 W/m² | - |
| 1777580703 | 23.89° C | 53% | 1010 hPa | 0 mm | - | 531 W/m² | - |
| 1777580399 | 23.89° C | 56% | 1010.1 hPa | 0 mm | - | 466 W/m² | - |
| 1777580095 | 23.33° C | 53% | 1010.3 hPa | 0 mm | - | 550 W/m² | - |
| 1777579792 | 23.33° C | 54% | 1010.3 hPa | 0 mm | - | 553 W/m² | - |
| 1777579490 | 22.78° C | 55% | 1010.3 hPa | 0 mm | - | 535 W/m² | - |
| 1777579185 | 22.78° C | 54% | 1010.4 hPa | 0 mm | - | 507 W/m² | - |
| 1777578880 | 22.78° C | 58% | 1010.3 hPa | 0 mm | - | 405 W/m² | - |
| 1777578576 | 23.33° C | 56% | 1010.2 hPa | 0 mm | - | 536 W/m² | - |
| 1777578271 | 23.33° C | 55% | 1010.1 hPa | 0 mm | - | 458 W/m² | - |
| 1777577967 | 23.33° C | 55% | 1010.3 hPa | 0 mm | - | 539 W/m² | - |
| 1777577662 | 23.33° C | 55% | 1010.3 hPa | 0 mm | - | 702 W/m² | - |
| 1777577360 | 22.78° C | 61% | 1010 hPa | 0 mm | - | 755 W/m² | - |
| 1777577056 | 22.78° C | 64% | 1010.3 hPa | 0 mm | - | 641 W/m² | - |
| 1777576753 | 22.78° C | 61% | 1010.1 hPa | 0 mm | - | 794 W/m² | - |
| 1777576451 | 23.33° C | 58% | 1010.3 hPa | 0 mm | - | 388 W/m² | - |
| 1777576149 | 22.78° C | 60% | 1010.4 hPa | 0 mm | - | 776 W/m² | - |
| 1777575843 | 22.78° C | 59% | 1010.4 hPa | 0 mm | - | 900 W/m² | - |
| 1777575541 | 22.78° C | 57% | 1010.4 hPa | 0 mm | - | 804 W/m² | - |
| 1777575236 | 22.78° C | 57% | 1010.6 hPa | 0 mm | - | 874 W/m² | - |
| 1777574933 | 23.33° C | 57% | 1010.4 hPa | 0 mm | - | 932 W/m² | - |
* Rain latest hour (hover to see other rain measurements)
** Current wind speed in m/s (hover to see current wind gust speed)